WetterOnline ( https://www.wetteronline.de )

Wetter aktuell Weiden

Aktuelles Wetter: Weiden (439m)

6-stündlich | Neueste Meldungen
Ortszeit Temperatur Wetter
So, 20.10. 20:00 11.5° C wolkig
So, 20.10. 14:00 17.2° C wolkig
So, 20.10. 8:00 6.7° C wolkenlos
So, 20.10. 2:00 8.3° C wolkig
Sa, 19.10. 20:00 11.6° C bedeckt
Sa, 19.10. 14:00 11.9° C leichter Regen
Sa, 19.10. 8:00 10.4° C leichter Regen
Sa, 19.10. 2:00 11.5° C bedeckt
Ortszeit Temperatur Wetter
Mo, 21.10. 0:00 9.6° C wolkig
So, 20.10. 23:50 9.6° C wolkig
So, 20.10. 23:40 9.7° C wolkig
So, 20.10. 23:30 9.9° C wolkig
So, 20.10. 23:20 9.9° C wolkig
So, 20.10. 23:10 9.8° C wolkig
So, 20.10. 23:00 10.0° C wolkig
So, 20.10. 22:30 10.3° C wolkig
So, 20.10. 22:00 10.5° C bewölkt
So, 20.10. 21:30 10.5° C wolkig
So, 20.10. 21:00 10.9° C wolkig
Ortszeit Relative Feuchte Sichtweite
So, 20.10. 20:00 87% 12 km
So, 20.10. 14:00 65% 18 km
So, 20.10. 8:00 98% 9 km
So, 20.10. 2:00 97% 15 km
Sa, 19.10. 20:00 85% 30 km
Sa, 19.10. 14:00 91% 21 km
Sa, 19.10. 8:00 97% 8 km
Sa, 19.10. 2:00 85% 35 km
Ortszeit Relative Feuchte Sichtweite
Mo, 21.10. 0:00 96% 5.0 km
So, 20.10. 23:50 96% -
So, 20.10. 23:40 95% -
So, 20.10. 23:30 95% 6 km
So, 20.10. 23:20 95% -
So, 20.10. 23:10 95% -
So, 20.10. 23:00 93% 7 km
So, 20.10. 22:30 93% 8 km
So, 20.10. 22:00 91% 9 km
So, 20.10. 21:30 92% 9 km
So, 20.10. 21:00 90% 9 km
Ortszeit Niederschlagsmenge Niederschlagsart
So, 20.10. 20:00 0.0 l/m2 in 12 Std. -
So, 20.10. 14:00 0.1 l/m2 in 6 Std. -
So, 20.10. 8:00 0.1 l/m2 in 12 Std. -
So, 20.10. 2:00 0.1 l/m2 in 6 Std. Regen
Sa, 19.10. 20:00 0.8 l/m2 in 12 Std. Regen
Sa, 19.10. 14:00 0.8 l/m2 in 6 Std. Regen
Sa, 19.10. 8:00 2 l/m2 in 12 Std. Regen
Sa, 19.10. 2:00 0.0 l/m2 in 6 Std. -
Ortszeit Niederschlagsmenge Niederschlagsart
Mo, 21.10. 0:00 0.0 l/m2 in 1 Std. -
So, 20.10. 23:50 keine Meldung -
So, 20.10. 23:40 keine Meldung -
So, 20.10. 23:30 0.0 l/m2 in 1 Std. -
So, 20.10. 23:20 keine Meldung -
So, 20.10. 23:10 keine Meldung -
So, 20.10. 23:00 0.0 l/m2 in 1 Std. -
So, 20.10. 22:30 0.0 l/m2 in 1 Std. -
So, 20.10. 22:00 0.0 l/m2 in 1 Std. -
So, 20.10. 21:30 0.0 l/m2 in 1 Std. -
So, 20.10. 21:00 0.0 l/m2 in 1 Std. -
Ortszeit Stärke Spitze Richtung
km/h Bft. km/h Grad Sektor
So, 20.10. 20:00 4 1 18 190° S
So, 20.10. 14:00 7 2 13 150° SO
So, 20.10. 8:00 4 1 18 280° W
So, 20.10. 2:00 4 1 14 100° O
Sa, 19.10. 20:00 4 1 18 230° SW
Sa, 19.10. 14:00 7 2 14 130° SO
Sa, 19.10. 8:00 4 1 18 340° N
Sa, 19.10. 2:00 7 2 18 140° SO
Ortszeit Stärke Spitze Richtung
km/h Bft. km/h Grad Sektor
Mo, 21.10. 0:00 0 0 7 - -
So, 20.10. 23:50 2 1 - 280° W
So, 20.10. 23:40 2 1 - 10° N
So, 20.10. 23:30 4 1 7 260° W
So, 20.10. 23:20 4 1 - 260° W
So, 20.10. 23:10 4 1 - 240° SW
So, 20.10. 23:00 4 1 7 270° W
So, 20.10. 22:30 4 1 4 340° N
So, 20.10. 22:00 4 1 7 300° NW
So, 20.10. 21:30 4 1 7 270° W
So, 20.10. 21:00 4 1 11 250° W
Ortszeit Untergrenze Bedeckung Gattung
total tief tief mittel hoch
So, 20.10. 20:00 8100 m 8/8 0/8 - - -
So, 20.10. 14:00 6900 m 8/8 6/8 - - -
So, 20.10. 8:00 - 0/8 0/8 - - -
So, 20.10. 2:00 3900 m 6/8 6/8 - - -
Sa, 19.10. 20:00 3300 m 8/8 8/8 - - -
Sa, 19.10. 14:00 1500 m 8/8 8/8 - - -
Sa, 19.10. 8:00 30 m 8/8 8/8 - - -
Sa, 19.10. 2:00 1500 m 8/8 8/8 - - -
Ortszeit Bedeckungsgrad in Achtel und Wolkenuntergrenze
Mo, 21.10. 0:00 8(8400m) 8(9000m)
So, 20.10. 23:50 8(8400m) 8(9000m)
So, 20.10. 23:40 8(8100m) 8(10500m)
So, 20.10. 23:30 8(7800m) 8(9000m)
So, 20.10. 23:20 8(7800m) 8(9000m)
So, 20.10. 23:10 8(7500m) 8(9000m)
So, 20.10. 23:00 5(7500m) 8(8100m) 8(9000m)
So, 20.10. 22:30 8(7200m) 8(8100m)
So, 20.10. 22:00 4(6600m) 6(7200m) 8(8100m)
So, 20.10. 21:30 8(8700m)
So, 20.10. 21:00 8(8700m)
Ortszeit Luftdruck NN (hPa) Tendenz (hPa in 3 Std.)
So, 20.10. 20:00 1012 + 0,4
So, 20.10. 14:00 1010 - 0,5
So, 20.10. 8:00 1012 0,0
So, 20.10. 2:00 1012 - 0,2
Sa, 19.10. 20:00 1012 - 0,3
Sa, 19.10. 14:00 1013 - 0,6
Sa, 19.10. 8:00 1013 - 1,2
Sa, 19.10. 2:00 1014 - 0,1
Ortszeit Luftdruck NN (hPa) Tendenz (hPa in 3 Std.)
Mo, 21.10. 0:00 1014 + 1,2
So, 20.10. 23:50 1014 keine Meldung
So, 20.10. 23:40 1014 keine Meldung
So, 20.10. 23:30 1013 + 1,1
So, 20.10. 23:20 1013 keine Meldung
So, 20.10. 23:10 1013 keine Meldung
So, 20.10. 23:00 1013 + 0,8
So, 20.10. 22:30 1012 + 0,5
So, 20.10. 22:00 1012 + 0,8
So, 20.10. 21:30 1012 + 0,7
So, 20.10. 21:00 1012 + 0,7
Ortszeit Schneehöhe (cm)
So, 20.10. 20:00 0
So, 20.10. 14:00 0
So, 20.10. 8:00 0
So, 20.10. 2:00 0
Sa, 19.10. 20:00 0
Sa, 19.10. 14:00 0
Sa, 19.10. 8:00 0
Sa, 19.10. 2:00 0
Ortszeit Schneehöhe (cm)
Mo, 21.10. 0:00 0
So, 20.10. 23:50 0
So, 20.10. 23:40 0
So, 20.10. 23:30 0
So, 20.10. 23:20 0
So, 20.10. 23:10 0
So, 20.10. 23:00 0
So, 20.10. 22:30 0
So, 20.10. 22:00 0
So, 20.10. 21:30 0
So, 20.10. 21:00 0
Link zu dieser Seite / Seite empfehlen

Das Wetter in ...